Regional Weather Roundup
Issued by NWS

Home | Current Version | Previous Version | Text Only | Print | Product List | Glossary On
Versions: 1 2 3 4 5 6 7 8 9 10 11 12 13 14 15 16 17 18 19 20 21 22 23 24 25 26 27 28
000
ASUS46 KSEW 090510
RWRWA

WASHINGTON REGIONAL WEATHER ROUNDUP
NATIONAL WEATHER SERVICE SEATTLE WA
900 PM PST THU DEC 08 2016

NOTE:"FAIR" INDICATES FEW OR NO CLOUDS BELOW 12,000 FEET WITH NO
SIGNIFICANT WEATHER AND/OR OBSTRUCTIONS TO VISIBILITY.

WAZ507-509-555>559-090600-
SEATTLE, TACOMA, EVERETT, AND VICINITY

CITY           SKY/WX    TMP DP  RH WIND       PRES   REMARKS
EVERETT        CLOUDY    34  18  52 VRB5      29.94R
BOEING FIELD   LGT SNOW  33  25  72 E17G23    29.97R WCI  22
RENTON         LGT SNOW  32  25  75 E12G21    29.95S WCI  23
SEATAC AIRPORT LGT SNOW  30  26  85 E14       29.93S FOG     WCI  19
JBLM-MCCHORD   LGT SNOW  30  30 100 NE6       29.92S FOG
PUYALLUP       LGT SNOW  28  28 100 CALM      29.91S
BREMERTON      CLOUDY    28  27  93 NE8       29.96F VSB 3/4
JBLM-FT LEWIS  LGT SNOW  30  28  93 N8        29.91S FOG
TACOMA NARROWS LGT SNOW  30  29  96 NE8       29.92F FOG
$$

WAZ001-503-506-510-514-515-090600-
NORTH INTERIOR

CITY           SKY/WX    TMP DP  RH WIND       PRES   REMARKS
BELLINGHAM     CLOUDY    30   7  37 NE17G29   29.98R WCI  18
FRIDAY HARBOR  CLOUDY    34  16  47 NE7       29.96F
EASTSOUND      CLOUDY    32  14  47 NE10G21   29.97S WCI  24
PORT ANGELES   CLOUDY    34  21  59 SE8       29.90S
EDIZ HOOK      CLOUDY    38  25  59 E21G29    29.92R
PORT TOWNSEND    N/A     34  25  69 S8G17     29.95
NAS WHIDBEY    CLOUDY    36  13  38 NE8       29.99S
ARLINGTON      CLOUDY    30  18  59 CALM      29.98R
BURLINGTON     NOT AVBL
$$

WAZ020-022-039-040-504-511-512-090600-
SOUTHWEST INTERIOR

CITY           SKY/WX    TMP DP  RH WIND       PRES   REMARKS
SHELTON        LGT SNOW  31  27  85 NE8       29.91R VSB 3/4
OLYMPIA        LGT SNOW  31  31 100 N7        29.92R FOG
CHEHALIS       LGT RAIN  34  32  93 VRB5      29.91R
KELSO          CLOUDY    33  29  85 SE9       29.91F
VANCOUVER      FRZ RAIN  33  26  75 SE10      29.97R WCI  25
SCAPPOOSE, OR  MIX PCPN  31  28  89 SW5       29.97R
PORTLAND, OR   FRZ RAIN  32  25  75 SE23G31   29.96R WCI  19
$$

WAZ021-516-517-090600-
WASHINGTON COAST

CITY           SKY/WX    TMP DP  RH WIND       PRES   REMARKS
FORKS          FLURRIES  34  22  61 NE16G22   29.80S WCI  24
HOQUIAM        FRZ RAIN  32  30  92 NE21G30   29.83R FOG     WCI  20
ASTORIA, OR    RAIN      38  33  82 NE16      29.82R
$$

WAZ019-023-024-040-567>569-090600-
CASCADE MOUNTAINS AND COLUMBIA GORGE

CITY           SKY/WX    TMP DP  RH WIND       PRES   REMARKS
STAMPEDE PASS  LGT SNOW  12  11  95 E8G22     29.88S FOG
TROUTDALE, OR  FRZ RAIN  30  25  81 E33G45    29.97R WCI  14
THE DALLES, OR LGT SNOW  24  22  91 E3        30.21R FOG
$$

WAZ026-027-041>044-520-521-090600-
EAST SLOPES

CITY           SKY/WX    TMP DP  RH WIND       PRES   REMARKS
OMAK           CLOUDY    20   8  60 N14       30.20R WCI   7
WENATCHEE      LGT SNOW  22  20  92 W5        30.21R FOG
ELLENSBURG     LGT SNOW  22  18  85 SE5       30.10F FOG
YAKIMA         SNOW      24  21  88 NW7       30.17F VSB 1/2
$$

WAZ028-034-035-090600-
COLUMBIA BASIN

CITY           SKY/WX    TMP DP  RH WIND       PRES   REMARKS
EPHRATA        CLOUDY    23  13  65 N7        30.16S
MOSES LAKE     CLOUDY    24  13  62 NE10      30.18R WCI  14
PASCO          LGT SNOW  25  24  96 NW13      30.19S VSB 1   WCI  14
HERMISTON, OR  CLOUDY    22  19  89 S6        30.17R
$$

WAZ036>038-090600-
NORTHEAST WASHINGTON

CITY           SKY/WX    TMP DP  RH WIND       PRES   REMARKS
SPOKANE GEIGER CLOUDY    19   5  54 NE10      30.09S WCI   7
SPOKANE FELTS  CLOUDY    22   6  50 NE12      30.14S WCI  10
FAIRCHILD AFB  NOT AVBL
COEURDALENE,ID CLOUDY    17   5  59 N16       30.13S WCI   2
DEER PARK      CLOUDY    19   1  45 NE13      30.13S WCI   6
$$

WAZ029>033-090600-
SOUTHEAST WASHINGTON

CITY           SKY/WX    TMP DP  RH WIND       PRES   REMARKS
PULLMAN        LGT SNOW  22  18  85 E10       30.06R FOG     WCI  11
LEWISTON, ID   LGT SNOW  22  20  92 CALM      30.12R FOG
WALLA WALLA    LGT SNOW  18  14  84 S6        30.12R VSB 3/4
PENDLETON, OR  CLOUDY    18  15  88 SE8       30.10R FOG
$$




USA.gov is the U.S. government's official web portal to all federal, state and local government web resources and services.